Location: Newark
(48.6461°N, 4.3644°W)
Time: 17:32:13
(UTC+00:00)

Transit 4A - Pass Details

Date: 01 February 2020
Orbit: 872 x 973 km, 66.8° (Epoch: 22 February)

Event Time Altitude Azimuth Distance (km) Brightness Sun altitude
Rises 12:34:02 0° 326° (NW) 3,476 10.4 24.2°
Reaches altitude 10° 12:36:43 10° 334° (NNW) 2,531 9.8 24.2°
Maximum altitude 12:42:09 39° 42° (NE) 1,298 8.6 24.1°
Drops below altitude 10° 12:47:35 10° 111° (ESE) 2,535 10.5 24.1°
Sets 12:50:16 0° 119° (ESE) 3,481 11.2 24.1°
